Location: Adamstown South Public School
(32.9318°S, 151.7012°E)
Time: 01:11:56
(UTC+00:00)

Cosmos 1725 Rocket - Pass Details

Date: 07 June 2020
Orbit: 962 x 990 km, 82.9° (Epoch: 13 July)

Event Time Altitude Azimuth Distance (km) Brightness Sun altitude
Rises 07:20:38 0° 13° (NNE) 3,665 7.2 -6.0°
Reaches altitude 10° 07:23:13 10° 18° (NNE) 2,729 6.4 -6.5°
Maximum altitude 07:29:09 46° 90° (E) 1,300 4.3 -7.7°
Drops below altitude 10° 07:35:11 10° 161° (SSE) 2,774 6.0 -8.8°
Sets 07:37:49 0° 166° (SSE) 3,732 6.7 -9.3°
